Погода в Акбайтале

Погода в Акбайтале : погода сейчас, прогноз погоды и архив. Всё, что Вы хотите узнать о погоде в Акбайтале!

Хотите узнать прогноз погоды в Акбайтале? Тогда Вам сюда: Погода в Акбайтале

Поиск расширенной информации на нашем сайте:

Другие новости

Новости СМИ2

Главная страница сайта

Новости сайта

02.10.2013

Напоминаем, что на нашем новом сайте вы можете получить высокодетализированные прогнозы погоды по пунктам России, СНГ и мира (включающие важные для авиации метеовеличины, такие как направление и скорость ветра, видимость, явления погоды, количество и форма облачности, нижняя и верхняя граница облачности), а также ознакомиться с разнообразными материалами по авиационной метеорологии и подборкой полезных ссылок на эту тему.

Сайт Метеоцентр.Азия посвящён разработке технологий оптимизации авиаметеорологического обслуживания, включая проектирование и перспективное создание нескольких автоматизированных авиаметеорологических систем:
- система выпуска высокодетальных прогностических карт явлений погоды для нижнего воздушного пространства по России и ближнему зарубежью;
- система верификации прогнозов TAF (выпускаемых синоптиками официальных АМСГ РФ и ближнего зарубежья) и AUTOTAF (выпускаемых сайтом Метеоцентр.Азия) - выявление ошибок, онлайн-сопоставление с фактической погодой METAR, автоматическое внесение коррективов в прогнозы при резком отклонении фактической погоды от прогноза, подсчёт оправдываемости прогнозов по элементам и в целом;
- система обработки, анализа и отображения авиаметеорологической информации для применения провайдерами метеорологической информации.

Рекомендуем: монтаж твердотопливного котла

Погода в Акбайтале - сегодня

Время (UTC), дата Ветер
(°,м/с) 
Видим.   Явления Облачность Т
(°С)
Тd
(°С)
f(%) Тe
(°С)
Pmin
(гПа)
dP
(гПа)
Po
(мм)
O2
(г/м3)
Тmin Tmax R s Состояние
почвы
00 21.01.17 280 (З) н/о    10/10 600 м 
[Sc]
-4.4 -10 65 -7  1025.7  0.8  747  307           
03 21.01.17 300 (СЗ) 20000 м    10/10 600 м 
[Sc]
-4.7 -9.9 67 -6  1025.9  0.2  747  307           
06 21.01.17 тихо ()   20000 м    10/10 600 м 
[Sc]
-4.5 -10.6 62 -5  1026.9  0.9  748  307  -4.7         
09 21.01.17 270 (З) 20000 м    10/10 600 м 
[Sc]
-3.6 -11.4 55 -5  1025.4  -1.3  747  306           
12 21.01.17 280 (З) 20000 м    10/10 1000 м 
[Sc]
-2.8 -11.3 52 -4  1024.4  -1  746  305           
15 21.01.17 180 (Ю) н/о    4/4 1500 м средняя 
[Ac cast]
+4.8 +2.8 87 +6  1024.7  737  291    +8.8       
18 21.01.17 120 (ЮВ) н/о    10/0 средняя 
[As op]
-3.3 -11 55 -4  1024.2  -1  746  305    -2.8       
21 21.01.17 тихо ()   н/о    6/6 600 м 
[Sc]
-3.4 -10.6 57 -3  1023.2  -1  745  305           
00 22.01.17 170 (Ю) н/о    8/8 1000 м 
[Sc]
-3.7 -10.5 59 -5  1022.6  -0.5  745  305           
03 22.01.17 220 (ЮЗ) 20000 м    8/8 600 м 
[Sc]
-3.9 -10.8 59 -5  1022.6  -0.1  745  305           
06 22.01.17 200 (Ю) 20000 м    10/10 600 м 
[Sc]
-0.5 -9.7 50 -1  1021.4  -0.8  744  301  -3.9         
09 22.01.17 210 (ЮЗ) 20000 м    10/5 1000 м средняя 
[Sc|Ac As]
+2 -8.7 45 +1  1020  -1.2  743  298           
12 22.01.17 230 (ЮЗ) 20000 м    4/4 1000 м 
[Sc]
+4 -8.2 41 +2  1018.3  -1.4  742  296           
15 22.01.17 190 (Ю) н/о    3/3 1000 м 
[Sc]
+0.4 -9.8 46 -1  1018.6  742  300    +4       
18 22.01.17 230 (ЮЗ) н/о    10/10 600 м 
[Sc]
+1.6 -7.9 49 -1  1018.2  -0.3  742  298    +4       
21 22.01.17 210 (ЮЗ) н/о    9/9 1000 м 
[Sc]
+1.5 -7.2 52 -2  1018.3  0.1  742  298           
00 23.01.17 270 (З) н/о    10/10 600 м 
[Cu med, cong]
-2.2 -9.9 56 -6  1020.9  2.1  744  303           
03 23.01.17 300 (СЗ) 20000 м    8/8 1000 м 
[Sc]
-3.5 -10.7 57 -7  1023.4  2.3  745  305           
06 23.01.17 250 (З) 20000 м    5/5 1000 м 
[Sc]
-5 -13 53 -9  1026.2  2.7  747  308  -3.5         
09 23.01.17 240 (ЮЗ) 20000 м    ясно 
-3.8 -12.8 50 -7  1026.2  0.9  748  307           
12 23.01.17 270 (З) 20000 м    ясно 
-1.7 -11.7 46 -4  1026.4  -0.4  748  304           
15 23.01.17 230 (ЮЗ) н/о    ясно 
-3.9 -13 49 -7  1028.1  1.4  749  307    -1.7       
18 23.01.17 250 (З) н/о    8/8 600 м 
[Sc]
-4.5 -12.8 52 -8  1028.1  749  308    -1.7       
21 23.01.17 230 (ЮЗ) н/о    10/10 600 м 
[Sc]
-4.7 -13.1 52 -9  1038.4  0.2  749  308           
00 24.01.17 220 (ЮЗ) н/о    10/10 600 м 
[Sc]
-4.8 -12.7 54 -9  1028.3  -0.1  749  308           
Время (UTC), дата Ветер
(°,м/с) 
Видим.   Явления Облачность Т
(°С)
Тd
(°С)
f(%) Тe
(°С)
Pmin
(гПа)
dP
(гПа)
Po
(мм)
O2
(г/м3)
Тmin Tmax R s Состояние
почвы

Для получения пояснительной информации подведите курсор к названию столбца.

ПОГОДА в Акбайтале - архив

Всё, что Вы хотите узнать о погоде в Акбайтале - удобно и подробно!

Выберите нужную дату (начиная с 1 января 2015* года) и нажмите кнопку "Найти".
Будут отображены архивные сводки погоды по пункту Акбайтал, начиная с указанной даты.


Отображать данные в формате CSV (для использования в таблицах Excel)


Внимание! Наш архив погоды предназначен исключительно для личного некоммерческого использования в познавательных целях. Если Вам необходимы официальные справки о состоянии погоды (для производственных, юридических, коммерческих и т.п. целей), обращайтесь в органы Росгидромета.

*Примечание: данная дата относится к архиву по метеостанциям СССР (Россия, СНГ, Балтия).
Архив по метеостанциям Зарубежной Европы и Азии (кроме Китая) хранится 10 дней, по другим регионам земного шара (Китай, Африка, Америка, Австралия, Океания) - 1 день.

Акбайтал - район местоположения метеостанции


Название, широта, долгота, высота метеостанции:
Акбайтал 43.2°ш. 64.3°д. 234 м над ур. моря [Узбекистан]

Дополнительная информация

В oтличие oт бoльшинства пoгoдных сайтoв мы публикуем пoдрoбную метеoинфoрмацию в детальнoм прoфессиoнальнoм фoрмате.

Характеристики температуры и влажнoсти вoздуха измеряются на высoте 2 м в тени вдали oт зданий и деревьев.
Скoрoсть ветра измеряется на высoте 10 м (на урoвне рoста челoвека скoрoсть ветра ниже в 1.5-2 раза). Если метеoстанция нахoдится в гoрoде или в лесу, тo скoрoсть ветра занижена на 2-4 м/с пo сравнению с oткрытым местoм. Скoрoсть ветра над акватoриями крупных рек и oзёр, а также на вершинах хoлмoв на 2-5 м/с выше, чем в oбычных услoвиях.
Атмoсфернoе давление в разных тoчках местнoсти мoжет значительнo oтличаться oт давления на метеoстанции, в зависимoсти oт услoвий рельефа (при пoдъёме на 10 м давление пoнижается примернo на 1 мм рт.ст.).